Flag Weather past 2 weeks in Salta, Salta, Argentina

Now
64 °F

Mostly cloudy.


Feels Like: 64 °F
Forecast: N/A
Wind: 9 mph from Southeast

Location: Salta Aerodrome

Current Time: Nov 20, 2014 at 8:56:56 PM

Latest Report: Nov 20, 2014 at 8:00 PM


Visibility: 4 mi

Pressure: 29.92 "Hg

Humidity: 94%

Dew point: 63 °F

Location of SaltaLocation

Historic Weather in Salta — Graph

°F

Salta temperature yesterday

Maximum temperature yesterday: 97 °F (at 2:00 PM)
Minimum temperature yesterday: 55 °F (at 6:00 AM)
Average temperature yesterday: 74 °F

Past Weeks' High & Low Weather Summary

 TemperatureHumidityPressure
High97 °F (Nov 19, 2:00 PM)100% (Nov 14, 6:00 AM)30.27 "Hg (Nov 14, 6:00 AM)
Low46 °F (Nov 14, 6:00 AM)10% (Nov 15, 5:00 PM)29.77 "Hg (Nov 10, 5:00 PM)
Average70 °F57%30.02 "Hg
* Reported Nov 5 7:00 PM — Nov 20 7:00 PM, Salta, Weather by CustomWeather, © 2014

Note: Actual official high and low records may vary slightly from our data, if they occured in-between our weather recording intervals... More about our weather records

Advertising

Salta weather history for previous 24 hours

 ConditionsComfort  
Time TempWeatherWind HumidityBarometerVisibility
7:00 PM
Nov 20
68 °FMostly cloudy.9 mph78%29.89 "Hg3 mi
6:00 PM70 °FPartly sunny.13 mph69%29.86 "HgN/A
5:00 PM73 °FPartly sunny.12 mph65%29.86 "HgN/A
4:00 PM77 °FScattered clouds.14 mph57%29.89 "HgN/A
3:00 PM77 °FPartly sunny.13 mph54%29.92 "HgN/A
2:00 PM75 °FScattered clouds.12 mph57%29.95 "HgN/A
1:00 PM73 °FScattered clouds.12 mph61%29.95 "HgN/A
12:00 PM73 °FBroken clouds.8 mph65%29.98 "Hg5 mi
11:00 AM70 °FBroken clouds.6 mph73%30.01 "Hg5 mi
10:00 AM68 °FBroken clouds.6 mph78%30.01 "Hg5 mi
9:00 AM66 °FPartly sunny.7 mph83%30.01 "Hg5 mi
8:00 AM66 °FPartly sunny.8 mph83%29.98 "Hg4 mi
7:00 AM66 °FPartly sunny.6 mph83%29.95 "Hg4 mi
6:00 AM66 °FSunny.5 mph83%29.92 "Hg10 mi
5:00 AM66 °FClear.2 mph83%29.89 "Hg10 mi
4:00 AM66 °FClear.6 mph83%29.92 "Hg10 mi
3:00 AM68 °FClear.7 mph78%29.92 "Hg10 mi
2:00 AM68 °FClear.7 mph69%29.95 "Hg10 mi
1:00 AM70 °FClear.3 mph64%29.92 "Hg10 mi
12:00 AM68 °FClear.6 mph83%29.95 "Hg10 mi
11:00 PM
Nov 19
70 °FPassing clouds.5 mph73%29.95 "HgN/A
10:00 PM75 °FPassing clouds.1 mph57%29.92 "HgN/A
9:00 PM77 °FPassing clouds.2 mph57%29.89 "HgN/A
8:00 PM77 °FPassing clouds.No wind57%29.86 "HgN/A
Weather by CustomWeather, © 2014

See weather overviewHow to use our weather pages